Location: Ç?ral? Körfezi
(36.3984°N, 30.4829°E)
Time: 21:52:46
(UTC+00:00)

Cosmos 2297 Rocket - Pass Details

Date: 04 August 2024
Orbit: 837 x 844 km, 71.0° (Epoch: 18 September)

Event Time Altitude Azimuth Distance (km) Brightness Sun altitude
Rises 20:15:05 0° 346° (NNW) 3,407 6.4 -30.8°
Reaches altitude 10° 20:17:45 10° 355° (N) 2,469 5.4 -31.0°
Enters shadow 20:21:57 34° 39° (NE) 1,364 3.4 -31.5°
